Regional Weather Roundup
Issued by NWS Burlington, VT

Current Version | Previous Version | Text Only | Print | Product List | Glossary On
Versions: 1 2 3 4 5 6 7 8 9 10 11 12 13 14 15 16 17 18 19 20 21 22 23 24 25 26 27 28 29 30 31 32 33 34 35 36 37 38 39 40 41 42 43 44 45 46 47 48 49 50
000
ASUS41 KBTV 290030
RWRBTV
VERMONT REGIONAL WEATHER ROUNDUP
NATIONAL WEATHER SERVICE BURLINGTON VT
800 PM EDT TUE JUL 28 2015

NOTE: "FAIR" INDICATES FEW OR NO CLOUDS BELOW 12,000 FEET WITH NO
SIGNIFICANT WEATHER AND/OR OBSTRUCTIONS TO VISIBILITY.

* THESE REPORTS ARE NOT UNDER NWS QUALITY CONTROL AND/OR DO NOT
  REPORT WEATHER SUCH AS PRECIPITATION AND FOG.

VTZ001>019-290100-
_____VERMONT_____


CITY           SKY/WX    TMP DP  RH WIND       PRES   REMARKS
BURLINGTON     PTCLDY    83  65  54 S3        29.95R
6HR MIN TEMP:  83; 6HR MAX TEMP:  90;

MONTPELIER     CLEAR     76  68  76 CALM      30.03R
6HR MIN TEMP:  76; 6HR MAX TEMP:  84;

MORRISVILLE    PTCLDY    79  70  74 CALM      29.98S
6HR MIN TEMP:  79; 6HR MAX TEMP:  87;

ST. JOHNSBURY*   N/A     77  66  68 MISG      29.95R
6HR MIN TEMP:  77; 6HR MAX TEMP:  86;

LYNDONVILLE*   FAIR      76  62  62 CALM      30.00S
6HR MIN TEMP:  77; 6HR MAX TEMP:  83;

MIDDLEBURY*    FAIR      75  69  79 CALM      29.96R
6HR MIN TEMP:  77; 6HR MAX TEMP:  89;

RUTLAND*       PTCLDY    75  63  64 SE7       29.98S
6HR MIN TEMP:  75; 6HR MAX TEMP:  86;

SPRINGFIELD    PTCLDY    77  70  79 CALM      29.97S
6HR MIN TEMP:  77; 6HR MAX TEMP:  89;

HIGHGATE*      FAIR      76  70  83 CALM      29.93S
6HR MIN TEMP:  76; 6HR MAX TEMP:  86;

NEWPORT*       FAIR      74  64  70 CALM      29.99R
6HR MIN TEMP:  76; 6HR MAX TEMP:  82;

BENNINGTON     PTCLDY    76  69  79 CALM      29.98R
6HR MIN TEMP:  76; 6HR MAX TEMP:  89;

SUTTON*          N/A     70 N/A N/A MISG        N/A
MT. MANSFIELD*   N/A     64 N/A N/A NW7         N/A

_____LAKE CHAMPLAIN_____


CITY           SKY/WX    TMP DP  RH WIND       PRES   REMARKS
COLCHESTER RF*   N/A     79  68  69 S5          N/A
DIAMOND ISL*     N/A     79  66  65 W1          N/A

$$

NYZ007-026>031-035-052-083-290100-
_____NORTHERN NEW YORK_____


CITY           SKY/WX    TMP DP  RH WIND       PRES   REMARKS
PLATTSBURGH    PTCLDY    76  71  85 CALM      29.93R
6HR MIN TEMP:  76; 6HR MAX TEMP:  85;

SARANAC LAKE   CLEAR     78  60  53 CALM      30.01S
6HR MIN TEMP:  78; 6HR MAX TEMP:  86;

MASSENA        CLEAR     80  66  62 SW6       29.94R
6HR MIN TEMP:  80; 6HR MAX TEMP:  89;

OGDENSBURG*    CLEAR     75  70  83 CALM      29.95R
POTSDAM*       CLEAR     75  72  88 CALM      29.96S
WATERTOWN      CLEAR     76  62  62 SW3       29.96F
6HR MIN TEMP:  76; 6HR MAX TEMP:  84;

FT DRUM        CLEAR     79  64  59 W5        29.97F
6HR MIN TEMP:  79; 6HR MAX TEMP:  86;

ALBANY         MOCLDY    81  68  64 VRB3      29.96R
6HR MIN TEMP:  80; 6HR MAX TEMP:  93; 6HR PCP: TRACE;

GLENS FALLS    MOCLDY    79  70  74 S5        29.94S
6HR MIN TEMP:  79; 6HR MAX TEMP:  89;


$$
NHZ002-005-011-290100-
_____NEW HAMPSHIRE_____


CITY           SKY/WX    TMP DP  RH WIND       PRES   REMARKS
LEBANON        CLEAR     77  68  73 S3        29.96R
6HR MIN TEMP:  77; 6HR MAX TEMP:  91;

KEENE          PTCLDY    75  66  73 CALM      29.98R
6HR MIN TEMP:  79; 6HR MAX TEMP:  88;

MT WASHINGTON  PTCLDY   N/A N/A N/A NW25        N/A
6HR MIN TEMP:  51; 6HR MAX TEMP:  61; 6HR PCP:  0.57;

PLYMOUTH       FAIR      74  72  91 CALM      29.96S
6HR MIN TEMP:  77; 6HR MAX TEMP:  85;

WHITEFIELD     CLOUDY    74  67  78 CALM      29.98S
6HR MIN TEMP:  74; 6HR MAX TEMP:  85; 6HR PCP: TRACE;


$$

_____REGIONAL QUEBEC LOCATIONS_____


CITY           SKY/WX    TMP DP  RH WIND       PRES   REMARKS
MONTREAL       PTCLDY    82  70  65 SW8       29.91R
QUEBEC CITY    PTCLDY    77  63  61 W6        29.88S
SHERBROOKE     CLEAR     73  68  83 CALM      29.96R

_____REGIONAL ONTARIO LOCATIONS_____


CITY           SKY/WX    TMP DP  RH WIND       PRES   REMARKS
OTTAWA         MOCLDY    81  70  69 S10       29.93S

______KEY______
VSB  - VISIBILITY IN MILES
WCI  - WIND CHILL INDEX
HX   - HEAT INDEX
$$
NNNN



USA.gov is the U.S. government's official web portal to all federal, state and local government web resources and services.